TIANLIAN 2-01

Last updated on Tue Sep 22 2026 00:03:15 GMT+0000 (Coordinated Universal Time)

1 44076U 19017A 26264.50432409 -.00000110 00000+0 00000+0 0 9997 2 44076 0.7809 82.4400 0003291 126.2169 50.3112 1.00272296 27614
UTC large
Height (km)
Speed (km/s)
/
Latitude / Longitude
Inclination (degrees)
Orbital Period (minutes)
Azimuth
Elevation
Range (km)
Doppler Factor

Next 0 passes for location: London (51.5072 / 0.1276)

No passes found over London.
TIANLIAN 2-01